Regional Weather Roundup
Issued by NWS

Home | Current Version | Previous Version | Text Only | Print | Product List | Glossary Off
Versions: 1 2 3 4 5 6 7 8 9 10 11 12 13 14 15 16 17 18 19 20 21 22 23 24 25 26 27 28 29 30 31 32 33 34 35 36 37 38 39 40 41 42 43 44 45 46 47 48 49 50

000
ASUS43 KMKX 300600
RWRWI

WISCONSIN REGIONAL WEATHER ROUNDUP
NATIONAL WEATHER SERVICE MILWAUKEE/SULLIVAN WI
100 AM CDT SUN AUG 30 2015

NOTE: "FAIR" INDICATES FEW OR NO CLOUDS BELOW 12,000 FEET WITH NO
SIGNIFICANT WEATHER AND/OR OBSTRUCTIONS TO VISIBILITY.

WIZ001-002-006>008-014>016-023>028-300700-
NORTHWEST WISCONSIN

CITY           SKY/WX    TMP DP  RH WIND       PRES   REMARKS
SUPERIOR ARPT  FAIR      62  61  96 SW6       29.97S
ASHLAND        FAIR      59  59 100 S3        30.00R FOG
6HR MIN TEMP:  59; 6HR MAX TEMP:  72;

HAYWARD        FAIR      62  60  93 S5        30.02S
6HR MIN TEMP:  62; 6HR MAX TEMP:  71;

SIREN          FAIR      62  60  95 S5        30.01F
CUMBERLAND     FAIR      57  55  94 S5        30.03S FOG
RICE LAKE      FAIR      58  56  94 S3        30.05R FOG
CHETEK         FAIR     N/A N/A N/A SE3       30.04S
LADYSMITH      FAIR      60  59  96 S6        30.06S
EAU CLAIRE     NOT AVBL
MENOMONIE      FAIR      60  59  97 E3        30.04R FOG
NEW RICHMOND   FAIR      62  61  97 S5        30.03S
OSCEOLA        FAIR      61  61 100 SE5       30.04S
$$

WIZ003>005-009-010-017-018-300700-
NORTH CENTRAL WISCONSIN

CITY           SKY/WX    TMP DP  RH WIND       PRES   REMARKS
MANITOWISH WTR FOG       56  56 100 S3        30.05R VSB 3/4
ARBOR VITAE    FAIR      62  61  96 SW6       30.06R
WOODRUFF       FAIR      62  61  96 SW6       30.06R
RHINELANDER    FAIR      60  58  92 SW5       30.07S FOG
6HR MIN TEMP:  59; 6HR MAX TEMP:  69;

EAGLE RIVER    FAIR      59  59 100 SW5       30.05S FOG
LAND O LAKES   FAIR      59  59  99 S3        30.06R FOG
PHILLIPS       MOCLDY    59  59 100 S3        30.05R
TOMAHAWK       FOG       55  55  97 CALM      30.07S VSB 1
MEDFORD        FAIR      55  55 100 CALM      30.07R FOG
MERRILL        FOG       52  52 100 CALM      30.07S VSB 1/2
$$

WIZ029-030-035-036-043>047-300700-
CENTRAL WISCONSIN

CITY           SKY/WX    TMP DP  RH WIND       PRES   REMARKS
WAUSAU         FOG       55  55 100 CALM      30.05S VSB 1
6HR MIN TEMP:  55; 6HR MAX TEMP:  66;

MOSINEE        FAIR      55  55 100 CALM      30.08R FOG
MARSHFIELD     FOG       56  54  93 CALM      30.06S VSB 1/4
6HR MIN TEMP:  56; 6HR MAX TEMP:  66;

STEVENS POINT  CLOUDY    54  53  98 CALM      30.07R FOG
WAUPACA        FOG       57  56  97 CALM      30.06S VSB 3/4
WAUTOMA        FOG       59  59 100 CALM      30.06S VSB 1/2
WISC RAPIDS    CLOUDY    61  59  93 CALM      30.07S
6HR MIN TEMP:  61; 6HR MAX TEMP:  67; 6HR PCP: TRACE;

CAMP DOUGLAS   CLOUDY    65  65 100 CALM      30.05S
6HR MIN TEMP:  64; 6HR MAX TEMP:  68;

$$

WIZ011>013-019>022-031-037>040-048>050-300700-
NORTHEAST WISCONSIN

CITY           SKY/WX    TMP DP  RH WIND       PRES   REMARKS
ANTIGO         FOG       52  52 100 CALM      30.07S VSB 1/4
SHAWANO        FOG       57  56  95 CALM      30.06S VSB<1/4
OCONTO         CLOUDY    55  55 100 CALM      30.05S VSB 1/4
STURGEON BAY   FAIR      59  55  88 S5        30.07F
6HR MIN TEMP:  59; 6HR MAX TEMP:  64;

GREEN BAY      FOG       56  55  97 CALM      30.06R VSB 1/4
6HR MIN TEMP:  56; 6HR MAX TEMP:  68;

MANITOWOC      FOG       55  55 100 MISG      30.06S VSB 1/4
APPLETON       FAIR      59  59 100 CALM      30.04S FOG
CLINTONVILLE   FOG       54  54 100 CALM      30.05S VSB 1/4
OSHKOSH        FAIR      63  60  90 SW3       30.04S FOG
6HR MIN TEMP:  61; 6HR MAX TEMP:  69;

$$

WIZ032>034-041-042-053>061-300700-
SOUTHWEST WISCONSIN

CITY           SKY/WX    TMP DP  RH WIND       PRES   REMARKS
LA CROSSE      FAIR      61  60  97 SE3       30.05S
6HR MIN TEMP:  61; 6HR MAX TEMP:  70;

SPARTA         CLOUDY    65  58  79 S3        30.07S
VIROQUA        CLOUDY    64  61  91 S3        30.07F
BOSCOBEL       CLOUDY    65  63  93 CALM      30.06S
6HR MIN TEMP:  65; 6HR MAX TEMP:  71;

PRAIRIE DU CHI CLOUDY    65  63  91 CALM      30.06R
PLATTEVILLE    CLOUDY    65  63  95 CALM      30.07R
$$

WIZ056-057-062-063-064-067-068-300700-
SOUTH CENTRAL WISCONSIN

CITY           SKY/WX    TMP DP  RH WIND       PRES   REMARKS
REEDSBURG      CLOUDY    64  63  96 CALM      30.06S
BARABOO/DELLS  CLOUDY    63  61  93 CALM      30.06S
LONE ROCK      NOT AVBL
MINERAL POINT  CLOUDY    66  63  88 CALM      30.07S
MADISON        CLOUDY    64  62  93 CALM      30.05S FOG
6HR MIN TEMP:  64; 6HR MAX TEMP:  67;

MIDDLETON      CLOUDY    65  65  98 CALM      30.06S
WATERTOWN      CLOUDY    63  63 100 CALM      30.05S
MONROE         CLOUDY    63  63 100 CALM      30.06R
JANESVILLE     CLOUDY    64  63  94 E3        30.05R FOG
$$

WIZ051-052-058>065-066-070>072-300700-
SOUTHEAST WISCONSIN

CITY           SKY/WX    TMP DP  RH WIND       PRES   REMARKS
MILWAUKEE      FOG       62  61  96 N5        30.04S VSB 1/4
6HR MIN TEMP:  62; 6HR MAX TEMP:  63; 6HR PCP:  0.01;

WAUKESHA       CLOUDY    59  59 100 CALM      30.06S FOG
MILWAUKEE/TIMM CLOUDY    61  59  94 CALM      30.05F FOG
RACINE         FOG       63  61  93 N5        30.05S VSB 1/2
6HR MIN TEMP:  61; 6HR MAX TEMP:  63; 6HR PCP:  0.01;

BURLINGTON     CLOUDY    61  61  99 CALM      30.05R FOG
KENOSHA        FOG       63  62  97 VRB3      30.04S VSB 1/2
6HR MIN TEMP:  63; 6HR MAX TEMP:  65;

FOND DU LAC    CLOUDY    64  62  93 CALM      30.05S
6HR MIN TEMP:  64; 6HR MAX TEMP:  68;

SHEBOYGAN      CLOUDY    61  60  97 CALM      30.05S FOG
6HR MIN TEMP:  61; 6HR MAX TEMP:  65;

WEST BEND      CLOUDY    61  59  94 CALM      30.05S FOG
JUNEAU         CLOUDY    62  61  98 CALM      30.06F FOG
$$

LSZ147-162-300700-
LAKE SUPERIOR

STATION/POSITION TIME  TEMP    WIND        PRES    WAVE
                       AIR SEA DIR/SP/G            HT/PER
                 (UTC) (F)     (DEG/KT/KT) (MB)    (FT/S)
W MID LAKE BUOY  0450   58 54  170/ 10/ 10 1014.7F   1
DEVILS ISLAND    0500   69     200/  8/ 10 1014.7S
PORT WING        0500   63      CALM  /  1 1015.2R
SAXON HARBOR     0540   65     200/  2/  7 1015.2R
$$

LMZ867-665-643>646-300700-
LAKE MICHIGAN

STATION/POSITION TIME  TEMP    WIND        PRES    WAVE
                       AIR SEA DIR/SP/G            HT/PER
                 (UTC) (F)     (DEG/KT/KT) (MB)    (FT/S)
CHAMBERS ISLAND  0500   61     190/  4/  6 1017.6S
S GREEN BAY BUOY 0500   63 62  200/  6/  8 1018.9S
N MID LAKE BUOY  0450   63 65  210/  8/ 10 1017.2F   1
NORTHPORT PIER   0501   61     200/  3/  7 1017.3S
SISTER BAY       0504   61     170/  4/  6   N/A
ALGOMA LAKESHORE 0529             CALM       N/A
SHEBOYGAN LAKESH 0500   58      10/  5/  5 1017.9F
PORT WASHINGTON  0500   60      40/  2/  3 1018.3
ATWATER BUOY     0500   53 50  330/  4/  6 1018.8S
MILWAUKEE LAKESH 0500   60      20/  6/  7   N/A
S MID LAKE BUOY  0450   68 68   60/  2/  2 1016.1F
KENOSHA   LAKESH 0500   62     360/  9/ 11 1016.9S
$$

TC  - TEMPERATURE IN CELSIUS
VSB - VISIBILITY IN STATUTE MILES
WCI - WIND CHILL INDEX
HX  - HEAT INDEX




USA.gov is the U.S. government's official web portal to all federal, state and local government web resources and services.